This is the latest recevied weather packets stored in our database for station/object DL3NDS-WX. If no packets are shown the sender has not sent any weather packets the latest 10 day(s).
| Time | Temp. | Humidity | Pressure | Rain* | Wind** | Luminosity | Snow |
|---|---|---|---|---|---|---|---|
| 1787922763 | 18.89° C | 93% | 1014.9 hPa | 0.25 mm | - | 237 W/m² | - |
| 1787922700 | 18.89° C | 93% | 1014.9 hPa | 0.25 mm | - | 237 W/m² | - |
| 1787922649 | 18.89° C | 93% | 1014.9 hPa | 0.25 mm | - | 341 W/m² | - |
| 1787922579 | 18.89° C | 93% | 1014.6 hPa | 0.25 mm | - | 341 W/m² | - |
| 1787922515 | 18.89° C | 92% | 1014.4 hPa | 0.25 mm | - | 341 W/m² | - |
| 1787922456 | 18.89° C | 92% | 1014.5 hPa | 0.25 mm | - | 643 W/m² | - |
| 1787922393 | 18.89° C | 92% | 1014.7 hPa | 0.25 mm | - | 643 W/m² | - |
| 1787922331 | 18.89° C | 92% | 1014.6 hPa | 0.25 mm | - | 643 W/m² | - |
| 1787922271 | 18.33° C | 92% | 1014.6 hPa | 0.25 mm | - | 376 W/m² | - |
| 1787922228 | 18.33° C | 92% | 1014.7 hPa | 0.25 mm | - | 376 W/m² | - |
| 1787922184 | 18.33° C | 92% | 1014.7 hPa | 0.25 mm | - | 376 W/m² | - |
| 1787922150 | 18.33° C | 92% | 1014.6 hPa | 0.25 mm | - | 329 W/m² | - |
| 1787922025 | 18.33° C | 92% | 1014.8 hPa | 0.25 mm | - | 295 W/m² | - |
| 1787921964 | 18.33° C | 92% | 1014.9 hPa | 0.25 mm | - | 221 W/m² | - |
| 1787921903 | 18.33° C | 92% | 1015.3 hPa | 0.25 mm | - | 197 W/m² | - |
| 1787921841 | 18.33° C | 92% | 1015.4 hPa | 0.25 mm | - | 174 W/m² | - |
| 1787921783 | 18.33° C | 92% | 1015.5 hPa | 0.25 mm | - | 153 W/m² | - |
| 1787921719 | 18.33° C | 92% | 1015.4 hPa | 0.25 mm | - | 135 W/m² | - |
| 1787921657 | 18.33° C | 92% | 1015.4 hPa | 0.25 mm | - | 121 W/m² | - |
| 1787921597 | 18.33° C | 92% | 1015.3 hPa | 0.25 mm | - | 116 W/m² | - |
| 1787921535 | 18.33° C | 92% | 1015.4 hPa | 0.25 mm | - | 104 W/m² | - |
| 1787921477 | 18.33° C | 92% | 1015.4 hPa | 0.25 mm | - | 93 W/m² | - |
| 1787921412 | 18.33° C | 92% | 1015.5 hPa | 0.25 mm | - | 84 W/m² | - |
| 1787921350 | 18.33° C | 92% | 1015.4 hPa | 0.25 mm | - | 74 W/m² | - |
| 1787921291 | 18.33° C | 92% | 1015.5 hPa | 0.25 mm | - | 77 W/m² | - |
* Rain latest hour (hover to see other rain measurements)
** Current wind speed in m/s (hover to see current wind gust speed)